CDT,Max TemperatureF,Mean TemperatureF,Min TemperatureF,Max Dew PointF,MeanDew PointF,Min DewpointF,Max Humidity, Mean Humidity, Min Humidity, Max Sea Level PressureIn, Mean Sea Level PressureIn, Min Sea Level PressureIn, Max VisibilityMiles, Mean VisibilityMiles, Min VisibilityMiles, Max Wind SpeedMPH, Mean Wind SpeedMPH, Max Gust SpeedMPH,PrecipitationIn, CloudCover, Events, WindDirDegrees
2014-4-1,85,74,64,68,65,63,94,81,51,29.99,29.93,29.83,10,9,7,18,9,25,0.00,6,,159
2014-4-2,85,76,69,69,67,64,95,82,59,29.90,29.82,29.69,10,9,3,20,11,25,0.00,6,,158
2014-4-3,83,75,68,68,67,64,94,81,60,29.81,29.75,29.66,10,9,5,16,9,18,0.00,5,,157
2014-4-4,72,66,58,70,48,28,100,57,20,30.12,29.97,29.82,10,9,4,24,9,33,0.00,1,Rain-Thunderstorm,358
2014-4-5,61,57,53,50,42,34,88,58,39,30.04,29.94,29.86,10,10,4,15,9,20,0.00,7,Rain,42
2014-4-6,61,56,52,55,52,46,100,84,59,29.87,29.78,29.73,10,9,4,16,10,23,0.00,7,Rain,15
2014-4-7,75,60,48,54,50,44,94,72,38,30.06,29.90,29.82,10,9,0,29,7,36,0.00,5,Rain-Thunderstorm,347
2014-4-8,78,62,47,45,35,27,83,42,16,30.22,30.14,30.06,10,10,10,25,12,32,0.00,0,,329
2014-4-9,84,63,42,53,42,36,82,51,17,30.27,30.18,30.06,10,10,10,14,7,20,0.00,0,,202
2014-4-10,88,70,53,60,54,47,100,74,24,30.12,30.05,29.91,10,8,1,22,7,26,0.00,1,,187
2014-4-11,88,71,55,61,57,54,100,78,31,30.05,29.99,29.88,10,7,0,18,6,23,0.00,2,Fog-Rain,156
2014-4-12,87,73,60,64,62,59,100,74,40,30.00,29.93,29.80,10,10,9,22,12,28,0.00,5,,162
2014-4-13,85,76,68,68,65,62,94,78,52,29.87,29.78,29.64,10,10,8,15,11,,0.00,4,,169
2014-4-14,73,60,47,70,54,32,88,73,34,30.24,29.86,29.67,10,10,3,30,12,39,0.03,5,Rain-Thunderstorm,4
2014-4-15,65,52,40,32,24,16,61,38,16,30.38,30.25,30.15,10,10,10,10,6,17,0.00,0,,35
2014-4-16,74,56,39,49,39,28,78,47,29,30.15,30.04,29.93,10,10,10,18,9,25,0.00,0,,153
2014-4-17,67,60,53,61,59,48,100,91,72,30.17,30.08,29.97,10,5,2,10,5,,0.08,7,Rain,79
2014-4-18,78,68,59,59,58,53,100,85,44,30.21,30.16,30.08,10,7,1,12,5,,0.01,5,,49
2014-4-19,79,64,51,57,53,50,94,71,40,30.18,30.12,30.04,10,10,9,14,5,18,0.00,1,,106
2014-4-20,75,70,64,63,62,58,89,78,58,30.15,30.09,30.01,10,10,8,14,8,,0.00,7,,135
2014-4-21,84,74,66,65,63,61,88,76,52,30.08,30.03,29.94,10,10,10,14,7,,0.00,6,,187
2014-4-22,88,74,60,63,59,51,100,73,31,30.03,29.98,29.88,10,8,0,15,5,20,0.00,0,Fog,23
2014-4-23,89,73,59,64,61,56,94,72,41,29.95,29.88,29.74,10,9,0,20,6,31,0.00,2,Fog,128
2014-4-24,86,74,61,65,63,60,94,78,46,29.91,29.84,29.77,10,10,10,12,7,,0.00,4,,181
2014-4-25,87,75,64,68,65,60,100,81,41,30.04,29.95,29.85,10,8,0,13,4,18,0.00,5,Fog,86
2014-4-26,89,76,66,70,66,62,94,78,47,29.89,29.79,29.64,10,9,5,16,9,22,0.00,7,,163
2014-4-27,97,84,72,70,64,45,88,65,17,29.66,29.58,29.45,10,10,7,15,9,23,0.00,5,,178
2014-4-28,97,80,65,65,36,21,75,27,7,29.73,29.63,29.55,10,9,4,15,6,25,0.00,0,,356
2014-4-29,86,74,61,53,36,22,59,29,12,29.96,29.76,29.62,10,10,3,22,10,30,0.00,1,,339
2014-4-30,77,66,54,38,32,27,49,28,18,30.16,30.09,29.98,10,10,10,18,11,24,0.00,0,,358